Wilmington, DE

6:24 PM EST on November 13, 2019 (GMT -0500)
New Castle County

Weather History for KILG - August, 2019

Change the Weather History Date:

Monday, August 19, 2019

  Actual Average Record
Temperature  
Mean Temperature 85 °F 75 °F  
Max Temperature 94 °F 84 °F 97 °F (1914)
Min Temperature 75 °F 66 °F 51 °F (1924)
Degree Days  
Heating Degree Days 0 0  
Month to date heating degree days 0 0  
Since 1 June heating degree days 5 15  
Since 1 July heating degree days 0 0  
Cooling Degree Days 20 10  
Month to date cooling degree days 259 206  
Year to date cooling degree days 1121 883  
Since 1 June cooling degree days 989 804  
Growing Degree Days 34 (Base 50)    
Moisture  
Dew Point 76 °F    
Average Humidity 75    
Maximum Humidity 100    
Minimum Humidity 49    
Precipitation  
Precipitation 0.00 in 0.10 in 4.80 in (1901)
Month to date precipitation 2.07 2.08  
Year to date precipitation 35.53 27.59  
Snow  
Snow 0.00 in 0.00 in 0.00 in (1894)
Month to date snowfall 0.0 0.0  
Since 1 June snowfall 0.0 0.0  
Since 1 July snowfall 0.0 0.0  
Snow Depth 0.00 in    
Sea Level Pressure  
Sea Level Pressure 29.99 in    
Wind  
Wind Speed 5 mph (SSW)    
Max Wind Speed 14 mph    
Max Gust Speed 18 mph    
Visibility 8 miles    
Events Fog    
T = Trace of Precipitation, MM = Missing Value Source: NWS Daily Summary

Daily Weather History Graph

Daily Weather History Graph

Search for Another Location

Airport or City:

Astronomy

Aug. 19, 2019 Rise Set
Actual Time 6:18 AM EDT 7:53 PM EDT
Civil Twilight 5:49 AM EDT 8:21 PM EDT
Nautical Twilight 5:15 AM EDT 8:56 PM EDT
Astronomical Twilight 4:38 AM EDT 9:32 PM EDT
Moon 10:14 PM EDT (8/19) 9:56 AM EDT (8/19)
Length of Visible Light 14h 32m
Length of Day
13h 35m
Waning Gibbous, 85% of the Moon is Illuminated
Aug 19
Waning Gibbous
Aug 23
Last Quarter
Aug 30
New
Sep 5
First Quarter
Sep 14
Full

Hourly Weather History & Observations

Time (EDT) Temp. Heat Index Dew Point Humidity Pressure Visibility Wind Dir Wind Speed Gust Speed Precip Events Conditions
12:51 AM 77.0 °F - 73.0 °F 88% 29.96 in 10.0 mi Calm Calm - N/A   Clear
1:26 AM 77.0 °F - 73.9 °F 90% 29.96 in 10.0 mi ESE 6.9 mph - N/A   Mostly Cloudy
1:33 AM 77.0 °F - 73.9 °F 90% 29.96 in 10.0 mi SE 6.9 mph - N/A   Scattered Clouds
1:51 AM 77.0 °F - 73.9 °F 90% 29.96 in 10.0 mi SSW 4.6 mph - N/A   Scattered Clouds
1:58 AM 77.0 °F - 75.0 °F 94% 29.96 in 10.0 mi South 5.8 mph - N/A   Mostly Cloudy
2:48 AM 78.8 °F - 77.0 °F 94% 29.96 in 10.0 mi South 5.8 mph - N/A   Scattered Clouds
2:51 AM 78.1 °F - 77.0 °F 96% 29.96 in 10.0 mi SSW 5.8 mph - N/A   Scattered Clouds
3:51 AM 75.9 °F - 75.0 °F 97% 29.97 in 10.0 mi Calm Calm - N/A   Clear
4:51 AM 75.0 °F - 75.0 °F 100% 29.98 in 10.0 mi SSE 3.5 mph - N/A   Clear
5:51 AM 75.0 °F - 75.0 °F 100% 29.99 in 8.0 mi South 4.6 mph - N/A   Clear
6:23 AM 75.9 °F - 75.0 °F 97% 30.00 in 6.0 mi Calm Calm - N/A   Partly Cloudy
6:51 AM 75.9 °F - 75.0 °F 97% 30.00 in 6.0 mi Calm Calm - N/A   Scattered Clouds
6:56 AM 75.9 °F - 75.0 °F 97% 30.00 in 6.0 mi South 3.5 mph - N/A   Mostly Cloudy
7:51 AM 77.0 °F - 77.0 °F 100% 30.01 in 4.0 mi SW 4.6 mph - N/A   Overcast
7:55 AM 77.0 °F - 77.0 °F 100% 30.01 in 1.8 mi SSW 3.5 mph - N/A   Overcast
8:00 AM 77.0 °F - 77.0 °F 100% 30.01 in 0.2 mi SSW 3.5 mph - N/A Fog Fog
8:19 AM 77.0 °F - 77.0 °F 100% 30.00 in 1.0 mi South 4.6 mph - N/A   Overcast
8:25 AM 77.0 °F - 77.0 °F 100% 30.00 in 0.5 mi South 3.5 mph - N/A Fog Fog
8:51 AM 78.1 °F - 77.0 °F 96% 30.01 in 4.0 mi West 4.6 mph - N/A   Overcast
9:35 AM 79.0 °F - 77.0 °F 94% 30.00 in 10.0 mi SW 3.5 mph - N/A   Overcast
9:51 AM 81.0 °F 87.9 °F 77.0 °F 88% 30.01 in 10.0 mi West 8.1 mph - N/A   Overcast
10:11 AM 81.0 °F 87.9 °F 77.0 °F 88% 30.01 in 10.0 mi WNW 4.6 mph - N/A   Overcast
10:51 AM 84.0 °F 93.7 °F 77.0 °F 79% 30.01 in 10.0 mi SW 6.9 mph - N/A   Overcast
11:27 AM 84.9 °F 95.3 °F 77.0 °F 77% 30.01 in 10.0 mi SW 5.8 mph - N/A   Scattered Clouds
11:51 AM 86.0 °F 96.9 °F 77.0 °F 74% 30.00 in 10.0 mi SSW 6.9 mph - N/A   Partly Cloudy
12:51 PM 89.1 °F 104.4 °F 79.0 °F 72% 29.99 in 10.0 mi SSE 10.4 mph - N/A   Clear
1:51 PM 91.0 °F 106.2 °F 78.1 °F 66% 29.98 in 10.0 mi SSE 6.9 mph - N/A   Clear
2:51 PM 93.9 °F 105.4 °F 75.0 °F 54% 29.96 in 10.0 mi Variable 5.8 mph - N/A   Mostly Cloudy
3:51 PM 93.0 °F 100.7 °F 72.0 °F 50% 29.96 in 10.0 mi WNW 13.8 mph - N/A   Partly Cloudy
4:51 PM 91.0 °F 100.4 °F 73.9 °F 57% 29.96 in 10.0 mi Calm Calm - N/A   Partly Cloudy
5:51 PM 87.1 °F 98.8 °F 77.0 °F 72% 29.95 in 10.0 mi SSE 8.1 mph - N/A   Scattered Clouds
6:51 PM 87.1 °F 97.3 °F 75.9 °F 69% 29.96 in 10.0 mi SE 5.8 mph - N/A   Clear
7:51 PM 84.0 °F 92.6 °F 75.9 °F 76% 29.99 in 10.0 mi SE 5.8 mph - N/A   Clear
8:51 PM 82.9 °F 90.8 °F 75.9 °F 79% 30.00 in 10.0 mi SE 4.6 mph - N/A   Partly Cloudy
9:51 PM 82.9 °F 90.2 °F 75.0 °F 77% 30.02 in 10.0 mi West 5.8 mph - N/A   Scattered Clouds
10:51 PM 80.1 °F 85.4 °F 75.9 °F 87% 30.03 in 10.0 mi NNW 3.5 mph - N/A   Clear
11:51 PM 79.0 °F - 75.9 °F 90% 30.03 in 10.0 mi NW 4.6 mph - N/A   Clear